Simultaneous Nadir Overpasses (SNOs) Predictions

Prediction of SNOs between GOES-17 and TERRA Satellite Orbit:

Table of predicted SNOs for the next 14.0 days since TLE Epoch: 10/15/2022
Index Date Time (GOES-17) GOES-17 Lat,Lon TERRA Lat,Lon Distance(km) Time Diff (sec)
1 10/15/2022 19:15:28 -0.09,-137.34 -0.56,-135.02 263.90 80
2 10/16/2022 07:36:24 0.08,-137.33 -0.49,-140.11 315.69 80
3 10/18/2022 07:19:47 0.08,-137.32 0.23,-136.73 66.87 80
4 10/20/2022 07:05:48 0.07,-137.30 0.90,-133.35 448.95 80
5 10/20/2022 19:26:35 -0.07,-137.31 0.15,-138.41 124.53 80
6 10/22/2022 19:15:16 -0.07,-137.29 -0.56,-135.03 257.30 80
7 10/23/2022 07:36:13 0.07,-137.27 -0.51,-140.12 322.75 80
8 10/25/2022 07:19:34 0.07,-137.25 0.20,-136.74 58.33 80
9 10/27/2022 07:05:34 0.07,-137.21 0.87,-133.35 438.46 80
10 10/27/2022 19:26:21 -0.07,-137.21 0.20,-138.40 135.51 80
